GLD424 SKBO-TNCC

Flight info

Callsign GLD424
Flight time N/A
Altitude 35000
Route DANSA4R KOVBU UW1 ENPUT UG431 ALCOT DCT EMAPA EMAPA1B
Aircraft B738/M-SDE2E3FGHIRWXY/LB1

Departure

Time N/A
Airport El Dorado International Airport (SKBO)

Arrival

Time 2026-04-28 22:12
Airport Hato International Airport (TNCC)
Time Latitude Longitude Altitude Speed Heading
2026-04-28 21:36 9.57811 -71.39241 34839 ft 482 kts 41°
2026-04-28 21:36 9.62771 -71.34679 34839 ft 483 kts 41°
2026-04-28 21:37 9.67738 -71.30109 34840 ft 484 kts 40°
2026-04-28 21:37 9.72728 -71.25516 34837 ft 485 kts 40°
2026-04-28 21:38 9.77739 -71.20901 34840 ft 486 kts 40°
2026-04-28 21:38 9.82752 -71.16285 34839 ft 487 kts 40°
2026-04-28 21:39 9.87779 -71.11657 34844 ft 488 kts 40°
2026-04-28 21:39 9.92779 -71.07050 34844 ft 488 kts 40°
2026-04-28 21:40 9.97825 -71.02398 34845 ft 488 kts 40°
2026-04-28 21:40 10.02860 -70.97755 34873 ft 489 kts 41°
2026-04-28 21:41 10.07878 -70.93123 34866 ft 489 kts 41°
2026-04-28 21:41 10.12917 -70.88472 34867 ft 489 kts 41°
2026-04-28 21:42 10.17932 -70.83837 34881 ft 489 kts 40°
2026-04-28 21:42 10.22979 -70.79167 34884 ft 489 kts 40°
2026-04-28 21:43 10.27985 -70.74532 34883 ft 489 kts 40°
2026-04-28 21:43 10.33025 -70.69865 34883 ft 489 kts 40°
2026-04-28 21:44 10.38028 -70.65243 34889 ft 489 kts 40°
2026-04-28 21:44 10.43062 -70.60597 34888 ft 488 kts 40°
2026-04-28 21:45 10.48093 -70.55950 34894 ft 488 kts 40°
2026-04-28 21:45 10.53094 -70.51327 34891 ft 488 kts 40°
2026-04-28 21:46 10.58122 -70.46675 34891 ft 488 kts 40°
2026-04-28 21:46 10.63139 -70.42033 34889 ft 488 kts 40°
2026-04-28 21:47 10.68140 -70.37365 34898 ft 488 kts 41°
2026-04-28 21:47 10.73121 -70.32674 34345 ft 495 kts 41°
2026-04-28 21:48 10.75661 -70.30313 33713 ft 493 kts 40°
2026-04-28 21:48 10.78213 -70.27949 32975 ft 494 kts 41°
2026-04-28 21:48 10.80757 -70.25593 32242 ft 495 kts 41°
2026-04-28 21:48 10.83303 -70.23231 31501 ft 496 kts 41°
2026-04-28 21:49 10.85866 -70.20850 30714 ft 498 kts 41°
2026-04-28 21:49 10.88398 -70.18495 29924 ft 501 kts 42°
2026-04-28 21:49 10.90977 -70.16094 29240 ft 498 kts 42°
2026-04-28 21:49 10.93534 -70.13712 28600 ft 493 kts 42°
2026-04-28 21:50 10.96031 -70.11386 28001 ft 489 kts 42°
2026-04-28 21:50 10.98513 -70.09074 27424 ft 484 kts 42°
2026-04-28 21:50 11.01004 -70.06752 26847 ft 479 kts 42°
2026-04-28 21:50 11.03459 -70.04465 26284 ft 475 kts 42°
2026-04-28 21:51 11.05868 -70.02218 25723 ft 471 kts 42°
2026-04-28 21:51 11.08288 -69.99965 25095 ft 468 kts 42°
2026-04-28 21:51 11.10665 -69.97755 24515 ft 465 kts 42°
2026-04-28 21:51 11.13057 -69.95531 23945 ft 462 kts 42°
2026-04-28 21:52 11.15407 -69.93346 23367 ft 459 kts 42°
2026-04-28 21:52 11.17769 -69.91149 22740 ft 455 kts 42°
2026-04-28 21:52 11.20074 -69.89004 22154 ft 450 kts 42°
2026-04-28 21:52 11.22377 -69.86859 21595 ft 445 kts 43°
2026-04-28 21:53 11.24635 -69.84756 21046 ft 439 kts 43°
2026-04-28 21:53 11.26885 -69.82658 20506 ft 435 kts 43°
2026-04-28 21:53 11.29103 -69.80592 19966 ft 424 kts 43°
2026-04-28 21:53 11.31273 -69.78572 19468 ft 420 kts 44°
2026-04-28 21:54 11.33398 -69.76589 18952 ft 417 kts 43°
2026-04-28 21:54 11.35544 -69.74586 18414 ft 414 kts 43°
2026-04-28 21:54 11.37643 -69.72630 17854 ft 411 kts 44°
2026-04-28 21:54 11.39750 -69.70665 17311 ft 406 kts 43°
2026-04-28 21:55 11.41843 -69.68726 16840 ft 401 kts 43°
2026-04-28 21:55 11.43897 -69.66912 16494 ft 392 kts 42°
2026-04-28 21:55 11.45971 -69.65124 16041 ft 388 kts 41°
2026-04-28 21:55 11.48039 -69.63358 15550 ft 385 kts 41°
2026-04-28 21:56 11.50080 -69.61610 15070 ft 382 kts 41°
2026-04-28 21:56 11.52104 -69.59862 14584 ft 380 kts 41°
2026-04-28 21:56 11.54117 -69.58121 14084 ft 378 kts 42°
2026-04-28 21:56 11.56113 -69.56393 13563 ft 376 kts 42°
2026-04-28 21:57 11.58104 -69.54669 13037 ft 373 kts 41°
2026-04-28 21:57 11.60076 -69.52964 12535 ft 370 kts 44°
2026-04-28 21:57 11.62013 -69.51284 12059 ft 367 kts 44°
2026-04-28 21:57 11.63960 -69.49593 11575 ft 365 kts 44°
2026-04-28 21:58 11.65870 -69.47935 11105 ft 362 kts 43°
2026-04-28 21:58 11.67785 -69.46274 10850 ft 353 kts 45°
2026-04-28 21:58 11.69626 -69.44678 10693 ft 341 kts 43°
2026-04-28 21:58 11.71396 -69.43141 10524 ft 325 kts 44°
2026-04-28 21:59 11.73049 -69.41708 10384 ft 307 kts 45°
2026-04-28 21:59 11.74634 -69.40331 10246 ft 290 kts 44°
2026-04-28 21:59 11.76133 -69.39031 10134 ft 277 kts 43°
2026-04-28 22:00 11.79012 -69.36524 9943 ft 271 kts 45°
2026-04-28 22:00 11.80454 -69.35266 9697 ft 280 kts 46°
2026-04-28 22:00 11.81945 -69.33965 9401 ft 280 kts 44°
2026-04-28 22:00 11.83428 -69.32676 9125 ft 278 kts 43°
2026-04-28 22:01 11.84903 -69.31392 8845 ft 277 kts 43°
2026-04-28 22:01 11.86357 -69.30134 8565 ft 276 kts 45°
2026-04-28 22:01 11.87817 -69.28866 8286 ft 274 kts 45°
2026-04-28 22:01 11.89273 -69.27597 8005 ft 273 kts 45°
2026-04-28 22:02 11.90706 -69.26350 7730 ft 272 kts 44°
2026-04-28 22:02 11.92156 -69.25104 7467 ft 271 kts 44°
2026-04-28 22:02 11.93589 -69.23884 7197 ft 270 kts 44°
2026-04-28 22:02 11.95066 -69.22696 6920 ft 272 kts 34°
2026-04-28 22:03 11.96864 -69.22003 6678 ft 277 kts 20°
2026-04-28 22:03 11.98725 -69.21469 6374 ft 278 kts 20°
2026-04-28 22:03 12.00591 -69.20932 6090 ft 277 kts 20°
2026-04-28 22:03 12.02426 -69.20400 5799 ft 277 kts 21°
2026-04-28 22:04 12.04279 -69.19856 5525 ft 276 kts 21°
2026-04-28 22:04 12.06128 -69.19308 5229 ft 276 kts 20°
2026-04-28 22:04 12.07967 -69.18761 4982 ft 274 kts 21°
2026-04-28 22:04 12.09780 -69.18221 4858 ft 267 kts 21°
2026-04-28 22:05 12.11541 -69.17697 4734 ft 260 kts 21°
2026-04-28 22:05 12.13248 -69.17249 4620 ft 256 kts 11°
2026-04-28 22:05 12.15026 -69.17332 4519 ft 252 kts 358°
2026-04-28 22:05 12.16737 -69.17516 4411 ft 239 kts 360°
2026-04-28 22:06 12.18314 -69.17669 4281 ft 217 kts
2026-04-28 22:06 12.19746 -69.17801 4105 ft 197 kts
2026-04-28 22:06 12.21043 -69.17859 3911 ft 174 kts 18°
2026-04-28 22:06 12.22039 -69.17375 3812 ft 149 kts 48°
2026-04-28 22:07 12.22634 -69.16594 3639 ft 137 kts 71°
2026-04-28 22:07 12.22783 -69.15686 3555 ft 128 kts 98°
2026-04-28 22:07 12.22685 -69.14743 3371 ft 136 kts 96°
2026-04-28 22:07 12.22566 -69.13789 3221 ft 135 kts 99°
2026-04-28 22:08 12.22406 -69.12847 3056 ft 132 kts 100°
2026-04-28 22:08 12.22227 -69.11921 2886 ft 132 kts 101°
2026-04-28 22:08 12.22043 -69.11012 2717 ft 132 kts 101°
2026-04-28 22:08 12.21852 -69.10091 2553 ft 132 kts 102°
2026-04-28 22:09 12.21659 -69.09171 2384 ft 132 kts 101°
2026-04-28 22:09 12.21468 -69.08255 2174 ft 129 kts 99°
2026-04-28 22:09 12.21296 -69.07358 2031 ft 133 kts 101°
2026-04-28 22:09 12.21091 -69.06442 1869 ft 133 kts 101°
2026-04-28 22:10 12.20894 -69.05523 1689 ft 131 kts 101°
2026-04-28 22:10 12.20706 -69.04624 1536 ft 126 kts 102°
2026-04-28 22:10 12.20525 -69.03772 1372 ft 121 kts 99°
2026-04-28 22:10 12.20350 -69.02932 1219 ft 125 kts 99°
2026-04-28 22:11 12.20162 -69.02034 1053 ft 134 kts 100°
2026-04-28 22:11 12.19966 -69.01102 889 ft 131 kts 100°
2026-04-28 22:11 12.19782 -69.00224 712 ft 126 kts 103°
2026-04-28 22:11 12.19600 -68.99348 570 ft 130 kts 102°
2026-04-28 22:12 12.19394 -68.98413 383 ft 133 kts 99°
2026-04-28 22:12 12.19195 -68.97478 134 ft 131 kts 99°
2026-04-28 22:12 12.19019 -68.96598 30 ft 119 kts 99°
2026-04-28 22:12 12.18910 -68.96092 29 ft 35 kts 101°
2026-04-28 22:13 12.18831 -68.95934 27 ft 7 kts 168°
2026-04-28 22:13 12.18785 -68.95932 27 ft 7 kts 184°
2026-04-28 22:13 12.18737 -68.95935 27 ft 8 kts 183°
2026-04-28 22:13 12.18649 -68.95939 27 ft 17 kts 182°
2026-04-28 22:14 12.18613 -68.95941 27 ft 0 kts 181°